Regional Weather Roundup
Issued by NWS

Home | Current Version | Previous Version | Graphics & Text | Print | Product List | Glossary On
Versions: 1 2 3 4 5 6 7 8 9 10 11 12 13 14 15 16 17 18 19 20 21 22 23 24 25 26 27 28 29 30 31 32 33 34 35 36 37 38 39 40 41 42 43 44 45 46 47 48 49 50
894
ASUS43 KLOT 261903
RWRIL

ILLINOIS REGIONAL WEATHER ROUNDUP
NATIONAL WEATHER SERVICE CHICAGO/ROMEOVILLE IL
100 PM CST SUN FEB 26 2017

NOTE: "FAIR" INDICATES FEW OR NO CLOUDS BELOW 12,000 FEET WITH NO
SIGNIFICANT WEATHER AND/OR OBSTRUCTIONS TO VISIBILITY.

* THESE STATIONS ARE NOT UNDER NWS QUALITY CONTROL. THEY ALSO MAY NOT
  REPORT WEATHER SUCH AS PRECIPITATION OR FOG.

ILZ001-002-007-009-015-016-024-262000-
NORTHWEST ILLINOIS

CITY           SKY/WX    TMP DP  RH WIND       PRES   REMARKS
MOLINE         SUNNY     49  21  33 W20G30    29.94F
STERLING*      SUNNY     46  23  40 SW16      29.93F
$$

ILZ003-004-008-010-011-017-018-262000-
NORTH CENTRAL ILLINOIS

CITY           SKY/WX    TMP DP  RH WIND       PRES   REMARKS
ROCKFORD       MOSUNNY   45  23  42 SW15G26   29.93F
FREEPORT*      SUNNY     42  26  52 SW16G23   29.93F
ROCHELLE*      SUNNY     43  25  50 SW25G31   29.94F
DE KALB*       SUNNY     44  24  45 SW25G36   29.94F
PERU*          SUNNY     46  19  35 SW15G29   29.97F
$$

ILZ005-006-012>014-019>023-262000-
NORTHEAST ILLINOIS

CITY           SKY/WX    TMP DP  RH WIND       PRES   REMARKS
CHICAGO-OHARE  PTSUNNY   45  19  35 SW22G31   29.93F
CHICAGO-MIDWAY MOSUNNY   47  18  31 SW21G35   29.95F
AURORA         MOSUNNY   46  23  40 SW23G33   29.95F
LANSING*       MOSUNNY   45  24  44 SW30G40   29.98F
JOLIET*        SUNNY     47  21  35 SW18G25   29.98F
WAUKEGAN       SUNNY     43  22  43 SW22G38   29.89F
DUPAGE AIRPORT MOSUNNY   45  20  36 SW25G37   29.93F
KANKAKEE*      SUNNY     47  18  31 SW29G38   30.02F
WHEELING       SUNNY     44  18  35 SW17G28   29.94F
MORRIS*        SUNNY     46  21  36 SW24G31   29.97F
ROMEOVILLE*    SUNNY     45  26  46 SW24G33   29.96F
NORTHERLY ISL    N/A     44  15  31 S20         N/A
$$

LMZ740>746-262000-
SOUTHERN LAKE MICHIGAN

STATION/POSITION SKY/WX   TEMP    WIND        PRES    VSBY  WAVE
                          AIR SEA DIR/SP/G                  HT/PER
                          (F)     (DEG/KT/KT) (MB)    (MI)  (FT/S)
HARRISON CRIB              43     220/ 32/ 35   N/A
BURNHAM HARBOR             44     240/ 15/ 23   N/A
CALUMET HARBOR             43     200/ 19/ 26 1014.2F
BURNS HARBOR               43     220/ 20/ 34 1015.6F
MICHIGAN CITY              41     190/ 25/ 29   N/A
$$

ILZ025>027-034>036-040-047-049-050-058-095>099-262000-
WEST-CENTRAL ILLINOIS

CITY           SKY/WX    TMP DP  RH WIND       PRES   REMARKS
QUINCY         PTSUNNY   48  22  35 SW15      30.02F
GALESBURG*     PTSUNNY   47  23  38 SW13G23   29.97F
MACOMB*        SUNNY     48  22  35 SW17      30.02F
JACKSONVILLE*  MOSUNNY   46  17  31 S17G24    30.05F
PITTSFIELD*    PTSUNNY   46  21  37 S15G22    30.06S
$$

ILZ028>032-037-038-041>044-048-051>054-059>061-262000-
CENTRAL ILLINOIS

CITY           SKY/WX    TMP DP  RH WIND       PRES   REMARKS
PONTIAC        MOSUNNY   47  19  33 SW18G32   30.01F
BLOOMINGTON    SUNNY     47  19  33 SW23G31   30.02F
DECATUR        SUNNY     46  16  30 SW20G35   30.07F
PEORIA         SUNNY     47  19  33 SW17G24   30.00F
LACON*         SUNNY     46  20  35 SW15      29.99F
LINCOLN*       SUNNY     49  21  32 SW13G23   30.04F
SPRINGFIELD    SUNNY     48  17  29 S22G28    30.06F
TAYLORVILLE    MOSUNNY   44  17  33 S24       30.08F
$$

ILZ033-039-045-046-055>057-062-063-262000-
EAST-CENTRAL ILLINOIS

CITY           SKY/WX    TMP DP  RH WIND       PRES   REMARKS
CHAMPAIGN      SUNNY     49  16  26 SW22G35   30.06F
RANTOUL*       SUNNY     49  18  28 SW24G37   30.05F
MATTOON        MOSUNNY   43  20  39 S15G23    30.09F
PARIS*         SUNNY     45  19  35 S18G30    30.11F
$$

ILZ079-100>102-262000-
SOUTHWEST ILLINOIS

CITY           SKY/WX    TMP DP  RH WIND       PRES   REMARKS
ALTON          CLOUDY    43  16  33 S13       30.12F
BELLEVILLE     CLOUDY    46  15  29 S8        30.11F
CAHOKIA*       CLOUDY    47  13  25 S8        30.12F
SPARTA*        CLOUDY    45  17  32 S14       30.14F
$$

ILZ064>066-069>071-074>076-080>082-084>086-088>090-092>094-262000-
SOUTH-CENTRAL ILLINOIS

CITY           SKY/WX    TMP DP  RH WIND       PRES   REMARKS
CARBONDALE     MOSUNNY   47  18  31 S13       30.15F
CAIRO*         CLOUDY    49  21  32 S13       30.16F
EFFINGHAM*     MOSUNNY   45  21  38 S13       30.14F
MARION         CLOUDY    50  16  25 S12       30.16F
MT. VERNON     MOSUNNY   48  17  29 SW15G21   30.14F
CENTRALIA*     CLOUDY    47  21  36 S12       30.13F
SALEM*         CLOUDY    47  18  31 S10       30.13F
METROPOLIS*    PTSUNNY   51  20  29 CALM      30.16F
$$

ILZ067-068-072-073-078-083-087-091-262000-
SOUTHEAST ILLINOIS

CITY           SKY/WX    TMP DP  RH WIND       PRES   REMARKS
LAWRENCEVILLE  MOSUNNY   47  16  29 SW15G23   30.16F
FLORA*         MOSUNNY   47  20  33 S14       30.15F
FAIRFIELD*     MOSUNNY   47  21  35 S9        30.14F
HARRISBURG*    SUNNY     49  20  31 SW9       30.16F
ROBINSON*      MOSUNNY   45  18  34 S16       30.15F
CARMI*         SUNNY     48  20  32 S13G18    30.16F
$$

ABBREVIATIONS USED IN REMARKS
   TC - TEMPERATURE IN CELSIUS
  WCI - WIND CHILL INDEX
   HX - HEAT INDEX
  VSB - VISIBILITY
$$





USA.gov is the U.S. government's official web portal to all federal, state and local government web resources and services.